User: anonymous   Login
Location: Unspecified
(0.0000°N, 0.0000°E)
Time: 06:51:41
(UTC+00:00)
Language:

STARLINK-31197 - Orbit

View from above orbital plane
View from above orbital plane
View from above satellite
View from above satellite

Ground track
Ground track

The orbit is defined by the following mean orbital elements,

1 58859U          26145.54871834 +.00000000 +00000-0 +17936-4 0 00006
2 58859  43.0016 175.1551 0001348 273.7982  86.2715 15.27576163    02
Epoch (UTC): 25 May 2026 13:10:09
Eccentricity: 0.0001348
inclination: 43.0016°
perigee height: 482 km
apogee height: 484 km
right ascension of ascending node: 175.1551°
argument of perigee: 273.7982°
revolutions per day: 15.27576163
mean anomaly at epoch: 86.2715°

The dashed part of the orbit path shows where the satellite is in the earth's shadow,  

DLR